Погода в Иванкове

Украина / Киевская область     50°18′59″N   31°03′46″E
темп.,
°C
ветер,
м/с
пор.,
м/с
влажн.,
%
обл.,
%
осадки,
мм/ч
давл.,
гПа
погр.,
м
7 мая, пт
пт700:00+8з3564100 0.0 101366
03:00+7з22625 0.0 101423
06:00+6юз227160 0.0 101317
09:00+11ю4563100 0.0 1014366
12:00+15ю6853100 0.0 10121694
15:00+15ю51061100 0.0 1010929
18:00+14ю71377100 0.8 1008837
21:00+12ю4898100 5.6 1007268
8 мая, сб
сб800:00+12ю3598100 8.9 1006167
03:00+12юз51096100 11.4 1004533
06:00+10зсз4996100 6.9 1005557
09:00+8з81288100 7.3 1009810
12:00+10з9117244 0.1 10111476
15:00+10з10125852 0.1 10131744
18:00+9зсз8116914 0.1 10141434
21:00+6з410775 0.1 1017347
9 мая, вс
вс900:00+6зсз511775 0.0 1019410
03:00+4зсз410830 0.0 1021267
06:00+3зсз49880 0.0 1023220
09:00+9зсз57690 0.0 1024675
12:00+12сз575370 0.0 10251911
15:00+13ссз4652100 0.0 10251939
18:00+14с245357 0.0 10251838
21:00+9всв226320 0.0 102715
10 мая, пн
пн1000:00+7вюв22705 0.0 102913
03:00+6юв22752 0.0 102919
06:00+5юв22781 0.0 103031
09:00+11вюв23605 0.0 1031361
12:00+14всв22470 0.0 10301159
15:00+16всв33440 0.0 10291392
18:00+15всв34550 0.0 10281204
21:00+10всв33710 0.0 102925
11 мая, вт
вт1100:00+8всв22740 0.0 102914
03:00+7св22800 0.0 102819
06:00+6св34840 0.0 102867
09:00+12всв46660 0.0 1028459
12:00+16всв56510 0.0 1026986
15:00+18всв55470 0.0 10251129
18:00+17всв46600 0.0 1024986
21:00+12всв3681100 0.0 102486